THORAD DELTA 1 DEB, 42593

Orbit data source: Space-Track

THORAD DELTA 1 DEB, 42593 is space debris in LEO originally from a launch on Fri, 15 Nov 1974 UTC launched from the Air Force Western Test Range (AFWTR). Debris objects in space refer to the collection of defunct objects orbiting the Earth. Examples of debris include non-operational satellites, rocket bodies, and fragments generated from explosions, collisions, or faulty payload assembly.

Loading next visibility...
Identifier
42593, 1974-089FJ
Orbit
LEO
Country
Flag of USUS
Related business
Manufacturer
Unknown
Mission
Spacecraft
Bus & Motor
Unknown
Mass
Unknown
Launch date (UTC)
1974-11-15 (52 years ago)
Launch vehicle
Unknown
Launch site
Air Force Western Test Range (AFWTR)
Object type
Payload
Rocket body
Debris
Shape & HBR
Unknown shape, 0.1 m
Radar Cross Section
Medium (>0.1 m² and <1 m²)

Expand to show TLE details & history
Last TLE update: 2 weeks ago

TLE from 2 weeks ago
0 THORAD DELTA 1 DEB
1 42593U 74089FJ  26147.66960608  .00000268  00000-0  37191-2 0  9991
2 42593 101.1952  37.6426 0381049  18.5761   5.9559 11.83980552540830
Epoch: 2026-05-27T16:04Z
TLE epoch observation values (Epoch: 2026-05-27T16:04:13.965Z)
Latitude
24.5272°
Longitude
-93.79664°
Altitude
1,447.913 km
Speed
7.274 km/s
True Right ascension
02h 09m 56s
True Declination
24° 24' 32"
Sunlit
Object was in daylight at epoch
Visualization orbit readout
Latitude
Unknown
Longitude
Unknown
Altitude
Unknown
Speed
Unknown
Apparent Right ascension
Unknown
Apparent Declination
Unknown
Sunlit
N/A
Visualization observer readout
Local Sidereal Time
03:14:06
Azimuth
Unknown
Elevation
Unknown
Doppler factor
Unknown
Orbital elements
Apogee altitude
2,060.748 km
Perigee altitude
1,441.229 km
Semi-major axis
8,129.126 km
Eccentricity
0.0381
Inclination
101.1952°
RAAN
37.6426°
Arg. of periapsis
18.5761°
True anomaly
6.43146°
Mean anomaly
5.9559°
Eccentric anomaly
6.19136°
Mean motion
2.96127 °/min
Orbital period
121.57 mins
BSTAR
0.0037191
Loading maneuver chart data...
Computing Atmospheric mass density...

Documentation

Showing up to 5 results
|